Weather History for Hanford, CA

Change the Weather History Date:

Monday, December 31, 2012

  Actual Average Record
Temperature  
Mean Temperature 39 °F 44 °F  
Max Temperature 51 °F 53 °F 64 °F (2005)
Min Temperature 27 °F 35 °F 24 °F (2010)
Degree Days  
Heating Degree Days 26    
Month to date heating degree days 539  
Since 1 July heating degree days 938  
Cooling Degree Days 0    
Month to date cooling degree days 0  
Year to date cooling degree days 2018  
Moisture  
Dew Point 32 °F    
Average Humidity 69    
Maximum Humidity 92    
Minimum Humidity 46    
Precipitation  
Precipitation 0.00 in 0.09 in 0.41 in (2004)
Month to date precipitation 1.52 1.63  
Year to date precipitation 6.58 10.10  
Since 1 July precipitation 2.00 3.34  
Snow  
Snow 0.00 in - - ()
Month to date snowfall 0.0  
Since 1 July snowfall 0.0  
Snow Depth 0.00 in    
Sea Level Pressure  
Sea Level Pressure 30.25 in    
Wind  
Wind Speed 2 mph (WSW)    
Max Wind Speed 9 mph    
Max Gust Speed 12 mph    
Visibility 6 miles    
Events Fog    
T = Trace of Precipitation, MM = Missing Value Source: NWS Daily Summary

Daily Weather History Graph

Daily Weather History Graph

Search for Another Location

Airport:

Trip Planner

Search our weather history database for the weather conditions in past years. The results will help you decide how hot, cold, wet, or windy it might be!

Date:

Astronomy

Dec. 31, 2012 Rise Set
Actual Time 7:09 AM PST 4:53 PM PST
Civil Twilight 6:41 AM PST 5:22 PM PST
Nautical Twilight 6:09 AM PST 5:54 PM PST
Astronomical Twilight 5:37 AM PST 6:26 PM PST
Moon 8:22 PM PST (12/31) 8:59 AM PST (12/31)
Length of Visible Light 10h 41m
Length of Day
9h 44m
Waning Gibbous, 89% of the Moon is Illuminated
Dec 31
Waning Gibbous
Jan 4
Last Quarter
Jan 11
New
Jan 18
First Quarter
Jan 26
Full

Hourly Weather History & Observations

Time (PST) Temp. Windchill Dew Point Humidity Pressure Visibility Wind Dir Wind Speed Gust Speed Precip Events Conditions
12:30 AM 33.8 °F - 30.2 °F 87% 30.18 in 2.0 mi Calm Calm - N/A   Scattered Clouds
12:38 AM 35.6 °F - 33.8 °F 93% 30.18 in 1.0 mi Calm Calm - N/A   Scattered Clouds
12:53 AM 32.0 °F - 30.9 °F 96% 30.19 in 0.2 mi Calm Calm - N/A Fog Fog
1:14 AM 33.8 °F - 30.2 °F 87% 30.19 in 0.8 mi Calm Calm - N/A   Mostly Cloudy
1:51 AM 35.6 °F - 33.8 °F 93% 30.20 in 1.0 mi Calm Calm - N/A   Overcast
1:53 AM 36.0 °F - 33.1 °F 89% 30.21 in 1.2 mi Calm Calm - N/A   Overcast
1:59 AM 35.6 °F - 33.8 °F 93% 30.20 in 4.0 mi Calm Calm - N/A   Overcast
2:53 AM 33.1 °F - 30.9 °F 92% 30.22 in 5.0 mi Calm Calm - N/A   Scattered Clouds
3:53 AM 32.0 °F - 30.0 °F 92% 30.23 in 4.0 mi Calm Calm - N/A   Clear
4:13 AM 30.2 °F - 30.2 °F 100% 30.22 in 1.5 mi Calm Calm - N/A   Clear
4:26 AM 30.2 °F - 28.4 °F 93% 30.22 in 0.8 mi Calm Calm - N/A   Clear
4:53 AM 30.0 °F 25.2 °F 28.0 °F 92% 30.23 in 3.0 mi WSW 4.6 mph - N/A   Scattered Clouds
5:53 AM 30.0 °F - 28.0 °F 92% 30.25 in 7.0 mi Calm Calm - N/A   Clear
6:53 AM 32.0 °F 28.7 °F 28.0 °F 85% 30.27 in 10.0 mi NW 3.5 mph - N/A   Clear
7:53 AM 34.0 °F 31.0 °F 30.0 °F 85% 30.28 in 10.0 mi WNW 3.5 mph - N/A   Clear
8:53 AM 39.0 °F - 32.0 °F 76% 30.30 in 10.0 mi Calm Calm - N/A   Clear
9:53 AM 41.0 °F 38.0 °F 34.0 °F 76% 30.30 in 10.0 mi SE 4.6 mph - N/A   Clear
10:53 AM 44.1 °F 41.5 °F 36.0 °F 73% 30.30 in 10.0 mi SSW 4.6 mph - N/A   Clear
11:53 AM 46.9 °F - 34.0 °F 61% 30.30 in 10.0 mi NW 6.9 mph - N/A   Clear
12:53 PM 48.9 °F - 32.0 °F 52% 30.28 in 10.0 mi NW 6.9 mph - N/A   Clear
1:53 PM 50.0 °F - 34.0 °F 54% 30.26 in 10.0 mi Calm Calm - N/A   Clear
2:53 PM 50.0 °F - 32.0 °F 50% 30.26 in 10.0 mi South 5.8 mph - N/A   Clear
3:53 PM 50.0 °F - 30.9 °F 48% 30.27 in 10.0 mi SW 4.6 mph - N/A   Clear
4:53 PM 45.0 °F - 33.1 °F 63% 30.27 in 10.0 mi Calm Calm - N/A   Clear
5:53 PM 41.0 °F - 32.0 °F 70% 30.27 in 10.0 mi Calm Calm - N/A   Clear
6:53 PM 37.0 °F - 32.0 °F 82% 30.29 in 10.0 mi Calm Calm - N/A   Clear
8:53 PM 33.1 °F - 30.0 °F 89% 30.30 in 8.0 mi Calm Calm - N/A   Clear
9:53 PM 37.9 °F 34.4 °F 33.1 °F 83% 30.31 in 8.0 mi West 4.6 mph - N/A   Clear
10:53 PM 39.9 °F - 33.1 °F 77% 30.31 in 9.0 mi Calm Calm - N/A   Clear
11:53 PM 37.9 °F - 33.1 °F 83% 30.30 in 7.0 mi Calm Calm - N/A   Scattered Clouds